Lake Seminole Weather Center

Moon Phase Calendar



Lake Seminole Water Level
Online Cameras

 


      

Current Conditions in Chattahoochee
3/2/2024 6:36:56 PM

68°F
Feels Like 69
Clouds
Humidity
91%
Pressure
30.06"
Wind
6.9 mph (S)
Dew Point
66°F
UV Index
0/10 (Low)
Visibility
6 mi

Hourly Forecast

Date & Time Sat, Mar 2
6:00 PM
Sat, Mar 2
7:00 PM
Sat, Mar 2
8:00 PM
Sat, Mar 2
9:00 PM
Sat, Mar 2
10:00 PM
Sat, Mar 2
11:00 PM
Sun, Mar 3
12:00 AM
Sun, Mar 3
1:00 AM
Sun, Mar 3
2:00 AM
Sun, Mar 3
3:00 AM
Sun, Mar 3
4:00 AM
Sun, Mar 3
5:00 AM
Sun, Mar 3
6:00 AM
Sun, Mar 3
7:00 AM
Sun, Mar 3
8:00 AM
Sun, Mar 3
9:00 AM
Sun, Mar 3
10:00 AM
Sun, Mar 3
11:00 AM
Sun, Mar 3
12:00 PM
Sun, Mar 3
1:00 PM
Sun, Mar 3
2:00 PM
Sun, Mar 3
3:00 PM
Sun, Mar 3
4:00 PM
Sun, Mar 3
5:00 PM
Sun, Mar 3
6:00 PM
Sun, Mar 3
7:00 PM
Sun, Mar 3
8:00 PM
Sun, Mar 3
9:00 PM
Sun, Mar 3
10:00 PM
Sun, Mar 3
11:00 PM
Mon, Mar 4
12:00 AM
Mon, Mar 4
1:00 AM
Mon, Mar 4
2:00 AM
Mon, Mar 4
3:00 AM
Mon, Mar 4
4:00 AM
Mon, Mar 4
5:00 AM
Mon, Mar 4
6:00 AM
Mon, Mar 4
7:00 AM
Mon, Mar 4
8:00 AM
Mon, Mar 4
9:00 AM
Mon, Mar 4
10:00 AM
Mon, Mar 4
11:00 AM
Mon, Mar 4
12:00 PM
Mon, Mar 4
1:00 PM
Mon, Mar 4
2:00 PM
Mon, Mar 4
3:00 PM
Mon, Mar 4
4:00 PM
Mon, Mar 4
5:00 PM
Condition
Clouds

Clouds

Clouds

Clouds

Rain

Rain

Clouds

Clouds

Clouds

Clouds

Clouds

Rain

Rain

Rain

Clouds

Clouds

Clouds

Clouds

Clouds

Clouds

Clouds

Clouds

Clouds

Clouds

Clouds

Clouds

Clouds

Clouds

Clouds

Clouds

Clouds

Clouds

Clouds

Clouds

Clouds

Clouds

Clouds

Clouds

Clouds

Clouds

Clouds

Clouds

Clouds

Clouds

Clear

Clouds

Clouds

Clouds
Temperature 69°F68°F68°F67°F65°F64°F62°F62°F61°F61°F60°F60°F60°F60°F62°F65°F68°F70°F73°F74°F76°F77°F77°F76°F74°F72°F71°F70°F69°F69°F68°F67°F65°F64°F63°F62°F62°F61°F62°F65°F68°F72°F74°F76°F77°F78°F78°F77°F
Feels Like 69°F69°F68°F67°F66°F64°F63°F62°F62°F61°F61°F60°F60°F60°F62°F65°F68°F71°F73°F74°F76°F77°F77°F76°F74°F71°F71°F70°F69°F68°F68°F67°F65°F64°F63°F63°F62°F62°F62°F65°F68°F71°F74°F76°F77°F78°F78°F77°F
Cloudiness 100%100%100%100%99%96%96%96%12%12%12%12%15%17%24%28%37%41%47%49%55%53%61%69%75%75%59%78%86%89%91%93%100%100%100%100%100%100%100%100%100%92%76%65%7%26%34%50%
Visibility 6 mi6 mi6 mi6 mi6 mi6 mi6 mi6 mi6 mi6 mi6 mi6 mi6 mi6 mi6 mi6 mi6 mi6 mi6 mi6 mi6 mi6 mi6 mi6 mi6 mi6 mi6 mi6 mi6 mi6 mi6 mi6 mi6 mi6 mi6 mi6 mi6 mi6 mi6 mi6 mi6 mi6 mi6 mi6 mi6 mi6 mi6 mi6 mi
Precipitation 40%36%0%0%36%36%36%36%0%0%16%24%28%28%4%0%0%0%0%0%0%0%0%0%0%0%4%0%0%0%0%0%0%0%0%0%0%0%0%0%0%0%0%0%0%0%0%0%
Humidity 88%91%92%93%94%96%97%97%97%97%97%97%97%97%95%88%82%75%68%63%58%55%54%57%63%63%63%64%69%73%75%78%84%88%90%92%94%94%88%78%69%62%56%52%50%49%48%52%
Dew Point 65°F66°F65°F64°F63°F63°F61°F61°F61°F60°F60°F59°F59°F59°F60°F61°F62°F62°F62°F61°F60°F60°F59°F60°F60°F59°F58°F58°F59°F60°F60°F60°F60°F60°F60°F60°F60°F59°F59°F58°F58°F58°F58°F58°F58°F57°F57°F59°F
Pressure 30.06"30.06"30.06"30.06"30.09"30.12"30.12"30.09"30.09"30.09"30.09"30.09"30.12"30.12"30.12"30.15"30.15"30.15"30.12"30.09"30.06"30.06"30.03"30.03"30.03"30.06"30.06"30.06"30.09"30.09"30.06"30.06"30.06"30.06"30.06"30.06"30.09"30.09"30.12"30.12"30.12"30.12"30.12"30.06"30.06"30.03"30"30"
Wind Speed 5.9 mph6.9 mph6.1 mph5 mph4.5 mph4 mph4 mph3.7 mph4.3 mph3.7 mph3.5 mph2.6 mph1.6 mph1.6 mph4 mph6.3 mph8.2 mph7.8 mph8.1 mph6.8 mph5.4 mph4.2 mph4.6 mph4.2 mph5.8 mph7 mph7 mph6.6 mph6.7 mph5.9 mph6.3 mph7 mph6.8 mph6.6 mph6.3 mph7 mph6.3 mph7.3 mph7 mph9.4 mph10.7 mph10.6 mph10.9 mph10.7 mph9.6 mph9.2 mph8.2 mph7.5 mph
Wind
Direction
166°
SSE
180°
S
195°
SSW
208°
SSW
177°
S
179°
S
176°
S
175°
S
183°
S
191°
S
190°
S
184°
S
43°
NE
77°
ENE
86°
E
81°
E
78°
ENE
84°
E
82°
E
89°
E
99°
E
103°
ESE
99°
E
80°
E
60°
ENE
46°
NE
46°
NE
64°
ENE
108°
ESE
84°
E
75°
ENE
87°
E
97°
E
107°
ESE
110°
ESE
101°
E
104°
ESE
92°
E
93°
E
102°
ESE
97°
E
101°
E
102°
ESE
103°
ESE
107°
ESE
103°
ESE
95°
E
84°
E

Daily Forecast

Date High Low Precip. Humidity
Today
Mar 2

Rain
74 °F
62 °F
100%
81%
Sunday
Mar 3

Clouds
78 °F
59 °F
20%
62%
Monday
Mar 4

Clouds
79 °F
61 °F
0%
52%
Tuesday
Mar 5

Rain
70 °F
63 °F
100%
84%
Wednesday
Mar 6

Rain
78 °F
62 °F
100%
57%
Thursday
Mar 7

Clouds
76 °F
59 °F
0%
52%
Friday
Mar 8

Clouds
79 °F
60 °F
0%
48%
Saturday
Mar 9

Rain
76 °F
64 °F
100%
88%
Sunday
Mar 10

Clouds
62 °F
50 °F
0%
35%
Monday
Mar 11

Clouds
64 °F
45 °F
0%
34%
Tuesday
Mar 12

Clouds
70 °F
46 °F
0%
29%
Wednesday
Mar 13

Rain
58 °F
55 °F
65%
89%
Thursday
Mar 14

Clouds
74 °F
55 °F
0%
47%
Friday
Mar 15

Clear
76 °F
56 °F
0%
43%
Saturday
Mar 16

Clouds
77 °F
59 °F
25%
54%
Sunday
Mar 17

Rain
70 °F
57 °F
100%
94%

Temperature 8-14 Day Outlook



Precipitation 8-14 Day Outlook




Quick Links
Lake Seminole News
Lake Seminole Photos
Lake Seminole Videos




About Us
Contact Us
Site Map
Search Site
Advertise With Us
   
Seminole.USLakes.info
THE LAKE SEMINOLE WEBSITE

Copyright 2024, Lakes Online
Privacy    |    Legal